Time,TemperatureF,DewpointF,PressureIn,WindDirection,WindDirectionDegrees,WindSpeedMPH,WindSpeedGustMPH,Humidity,HourlyPrecipIn,Conditions,Clouds,dailyrainin,SoftwareType,DateUTC
2013-09-20 00:44:00,53.0,-99.9,30.08,SSE,156,-999.0,-999.0,-999,0.00,,,-99.99,,2013-09-20 04:44:00,
2013-09-20 00:53:00,53.0,-99.9,30.08,SSE,156,-999.0,-999.0,-999,0.00,,,-99.99,,2013-09-20 04:53:00,
2013-09-20 01:43:00,53.0,-99.9,30.08,SSE,156,-999.0,-999.0,-999,0.00,,,-99.99,,2013-09-20 05:43:00,
2013-09-20 02:43:00,52.0,-99.9,30.08,SSE,156,-999.0,-999.0,-999,0.00,,,-99.99,,2013-09-20 06:43:00,
2013-09-20 02:52:00,52.0,-99.9,30.08,SSE,156,-999.0,-999.0,-999,0.00,,,-99.99,,2013-09-20 06:52:00,
2013-09-20 02:53:00,51.0,-99.9,30.08,SSE,156,-999.0,-999.0,-999,0.00,,,-99.99,,2013-09-20 06:53:00,
2013-09-20 03:42:00,51.0,-99.9,30.08,SSE,156,-999.0,-999.0,-999,0.00,,,-99.99,,2013-09-20 07:42:00,
2013-09-20 04:42:00,51.0,-99.9,30.08,SSE,156,-999.0,-999.0,-999,0.00,,,-99.99,,2013-09-20 08:42:00,
2013-09-20 04:52:00,51.0,-99.9,30.08,SSE,156,-999.0,-999.0,-999,0.00,,,-99.99,,2013-09-20 08:52:00,
2013-09-20 04:53:00,50.0,-99.9,30.08,SSE,156,-999.0,-999.0,-999,0.00,,,-99.99,,2013-09-20 08:53:00,
2013-09-20 05:44:00,50.0,-99.9,30.08,SSE,156,-999.0,-999.0,-999,0.00,,,-99.99,,2013-09-20 09:44:00,
2013-09-20 05:53:00,49.0,-99.9,30.08,SSE,156,-999.0,-999.0,-999,0.00,,,-99.99,,2013-09-20 09:53:00,
2013-09-20 06:42:00,49.0,-99.9,30.08,SSE,156,-999.0,-999.0,-999,0.00,,,-99.99,,2013-09-20 10:42:00,
2013-09-20 07:42:00,49.0,-99.9,30.09,SSE,156,-999.0,-999.0,-999,0.00,,,-99.99,,2013-09-20 11:42:00,
2013-09-20 07:52:00,49.0,-99.9,30.09,SSE,156,-999.0,-999.0,-999,0.00,,,-99.99,,2013-09-20 11:52:00,
2013-09-20 08:43:00,50.0,-99.9,30.09,SSE,156,-999.0,-999.0,-999,0.00,,,-99.99,,2013-09-20 12:43:00,
2013-09-20 08:52:00,50.0,-99.9,30.09,SSE,156,-999.0,-999.0,-999,0.00,,,-99.99,,2013-09-20 12:52:00,
2013-09-20 08:53:00,54.0,-99.9,30.09,SSE,156,-999.0,-999.0,-999,0.00,,,-99.99,,2013-09-20 12:53:00,
2013-09-20 09:42:00,54.0,-99.9,30.09,SSE,156,-999.0,-999.0,-999,0.00,,,-99.99,,2013-09-20 13:42:00,
2013-09-20 10:42:00,64.0,-99.9,30.09,ENE,63,-999.0,3.0,-999,0.00,,,-99.99,,2013-09-20 14:42:00,
2013-09-20 10:52:00,64.0,-99.9,30.09,ENE,63,-999.0,3.0,-999,0.00,,,-99.99,,2013-09-20 14:52:00,
2013-09-20 10:53:00,71.0,-99.9,30.09,NE,54,-999.0,4.0,-999,0.00,,,-99.99,,2013-09-20 14:53:00,
2013-09-20 11:44:00,71.0,-99.9,30.09,NE,54,-999.0,4.0,-999,0.00,,,-99.99,,2013-09-20 15:44:00,
2013-09-20 11:53:00,76.0,-99.9,30.06,SSW,202,-999.0,5.0,-999,0.00,,,-99.99,,2013-09-20 15:53:00,
2013-09-20 12:43:00,76.0,-99.9,30.06,SSW,202,-999.0,5.0,-999,0.00,,,-99.99,,2013-09-20 16:43:00,
2013-09-20 12:53:00,79.0,-99.9,30.05,NNE,20,-999.0,10.0,-999,0.00,,,-99.99,,2013-09-20 16:53:00,
2013-09-20 13:43:00,79.0,-99.9,30.05,NNE,20,-999.0,10.0,-999,0.00,,,-99.99,,2013-09-20 17:43:00,
2013-09-20 14:42:00,80.0,-99.9,30.02,West,266,-999.0,5.0,-999,0.00,,,-99.99,,2013-09-20 18:42:00,
2013-09-20 14:52:00,80.0,-99.9,30.02,West,266,-999.0,5.0,-999,0.00,,,-99.99,,2013-09-20 18:52:00,
2013-09-20 14:53:00,81.0,-99.9,30.01,South,189,4.0,6.0,-999,0.00,,,-99.99,,2013-09-20 18:53:00,
2013-09-20 15:42:00,81.0,-99.9,30.01,South,189,4.0,6.0,-999,0.00,,,-99.99,,2013-09-20 19:42:00,
2013-09-20 16:42:00,80.0,-99.9,30.00,SSE,163,3.0,9.0,-999,0.00,,,-99.99,,2013-09-20 20:42:00,
2013-09-20 16:52:00,80.0,-99.9,30.00,SSE,163,3.0,9.0,-999,0.00,,,-99.99,,2013-09-20 20:52:00,
2013-09-20 16:53:00,78.0,-99.9,29.99,SW,236,3.0,10.0,-999,0.00,,,-99.99,,2013-09-20 20:53:00,
2013-09-20 17:45:00,78.0,-99.9,29.99,SW,236,3.0,10.0,-999,0.00,,,-99.99,,2013-09-20 21:45:00,
2013-09-20 17:53:00,74.0,-99.9,30.00,SE,127,-999.0,9.0,-999,0.00,,,-99.99,,2013-09-20 21:53:00,
2013-09-20 18:44:00,74.0,-99.9,30.00,SE,127,-999.0,9.0,-999,0.00,,,-99.99,,2013-09-20 22:44:00,
2013-09-20 18:53:00,70.0,-99.9,30.00,SE,142,-999.0,6.0,-999,0.00,,,-99.99,,2013-09-20 22:53:00,
2013-09-20 19:42:00,70.0,-99.9,30.00,SE,142,-999.0,6.0,-999,0.00,,,-99.99,,2013-09-20 23:42:00,
2013-09-20 20:42:00,67.0,-99.9,30.00,East,82,-999.0,6.0,-999,0.00,,,-99.99,,2013-09-21 00:42:00,
2013-09-20 20:52:00,67.0,-99.9,30.00,East,82,-999.0,6.0,-999,0.00,,,-99.99,,2013-09-21 00:52:00,
2013-09-20 21:42:00,65.0,-99.9,30.00,East,97,-999.0,-999.0,-999,0.00,,,-99.99,,2013-09-21 01:42:00,
2013-09-20 21:52:00,65.0,-99.9,30.00,East,97,-999.0,-999.0,-999,0.00,,,-99.99,,2013-09-21 01:52:00,
2013-09-20 22:42:00,63.0,-99.9,30.00,SSW,213,-999.0,3.0,-999,0.00,,,-99.99,,2013-09-21 02:42:00,
2013-09-20 22:52:00,63.0,-99.9,30.00,SSW,213,-999.0,3.0,-999,0.00,,,-99.99,,2013-09-21 02:52:00,
2013-09-20 22:53:00,62.0,-99.9,30.01,SSW,213,-999.0,-999.0,-999,0.00,,,-99.99,,2013-09-21 02:53:00,
2013-09-20 23:44:00,62.0,-99.9,30.01,SSW,213,-999.0,-999.0,-999,0.00,,,-99.99,,2013-09-21 03:44:00,
2013-09-20 23:53:00,60.0,-99.9,30.01,SSW,213,-999.0,-999.0,-999,0.00,,,-99.99,,2013-09-21 03:53:00,